Вернуться в каталог

COSMOS 529

АктивенВоенныеLEO
NORAD 6264·PAYLOAD·🇷🇺 Russia

Запущен Nov 1, 1972 с Plesetsk Cosmodrome

Loading…

Ближайшие Пролёты (ближайшие 24 часа)

TLE

СвежийSource: Space-Track

Эпоха: Sep 14, 2026, 09:08 UTC

1 06264U 72087B   26257.38118138 -.00000031  00000-0 -88365-4 0  9997
2 06264  74.0319 237.1470 0042169 359.9016 153.8161 12.57216019472207

Отслеживайте COSMOS 529 в реальном времени с AllMySat

Download on the App Store